QPF
0.00 0.00 0.00 0.00 0.01 0.00 0.00 0.00 0.00 0.00 0.00 0.00 0.00 0.01 0.01 0.02 0.00 0.00 0.00 0.00 0.00 0.00 0.00 0.00 0.00 0.00 0.00 0.00 0.00 0.00 0.00 0.02 0.00 0.00 0.00 0.00 0.00 0.00 0.00 0.00 0.00 0.00 0.00 0.00 0.00 0.00 0.00 0.00 0.00 0.00 0.00 0.00 0.00 0.00 0.00 0.00 0.00 0.00 0.00 0.00 0.00 0.00 0.00 0.00 0.00 0.00 0.00 0.00 0.00 0.00 0.00 0.00 0.00 0.00
0.00 0.00 0.00 0.00 0.00 0.00 0.00 0.00 0.00 0.00 0.00 0.00 0.01 0.00 0.00 0.00 0.02 0.00 0.00 0.00 0.00 0.00 0.00 0.00 0.00 0.01 0.02 0.01 0.01 0.01 0.01 0.01 0.00 0.00 0.00 0.00 0.00 0.00 0.00 0.00 0.00 0.00 0.00 0.00 0.00 0.00 0.00 0.00 0.00 0.00 0.00 0.00 0.00 0.00 0.00 0.00 0.00 0.00 0.00 0.00 0.00 0.00 0.00 0.00 0.00 0.00 0.00 0.00 0.00 0.00 0.00 0.00 0.00 0.00
0.00 0.00 0.00 0.00 0.00 0.00 0.00 0.00 0.00 0.00 0.00 0.00 0.00 0.01 0.00 0.00 0.00 0.01 0.01 0.00 0.00 0.00 0.00 0.00 0.00 0.00 0.00 0.00 0.01 0.00 0.00 0.00 0.00 0.00 0.00 0.00 0.00 0.00 0.00 0.00 0.00 0.00 0.00 0.00 0.00 0.00 0.00 0.00 0.00 0.00 0.00 0.00 0.00 0.00 0.00 0.00 0.00 0.00 0.00 0.00 0.00 0.00 0.00 0.00 0.00 0.00 0.00 0.00 0.00 0.00 0.00 0.00 0.00 0.00
0.00 0.00 0.00 0.00 0.00 0.00 0.00 0.00 0.00 0.00 0.00 0.00 0.01 0.00 0.00 0.00 0.00 0.00 0.01 0.01 0.00 0.00 0.00 0.00 0.00 0.00 0.00 0.00 0.00 0.00 0.00 0.00 0.00 0.00 0.00 0.00 0.00 0.00 0.00 0.00 0.00 0.00 0.00 0.00 0.00 0.00 0.00 0.00 0.00 0.00 0.00 0.00 0.00 0.00 0.00 0.00 0.00 0.00 0.00 0.00 0.00 0.00 0.00 0.00 0.00 0.00 0.00 0.00 0.00 0.00 0.00 0.00 0.00 0.00
0.00 0.00 0.00 0.00 0.00 0.00 0.00 0.00 0.01 0.01 0.00 0.00 0.00 0.00 0.00 0.00 0.01 0.00 0.01 0.02 0.01 0.00 0.00 0.00 0.00 0.00 0.00 0.00 0.00 0.00 0.00 0.00 0.00 0.00 0.01 0.01 0.01 0.01 0.00 0.00 0.00 0.00 0.00 0.00 0.00 0.00 0.00 0.00 0.00 0.00 0.00 0.00 0.00 0.00 0.00 0.00 0.00 0.00 0.00 0.00 0.00 0.00 0.00 0.00 0.00 0.00 0.00 0.00 0.00 0.00 0.00 0.00 0.00 0.00
0.00 0.00 0.00 0.00 0.00 0.00 0.00 0.03 0.01 0.00 0.00 0.00 0.00 0.00 0.00 0.00 0.00 0.00 0.00 0.01 0.02 0.01 0.00 0.00 0.00 0.00 0.00 0.00 0.00 0.00 0.00 0.00 0.00 0.00 0.00 0.00 0.00 0.00 0.00 0.00 0.00 0.00 0.00 0.00 0.00 0.00 0.00 0.00 0.00 0.00 0.00 0.00 0.00 0.00 0.00 0.00 0.00 0.00 0.00 0.00 0.00 0.00 0.00 0.00 0.00 0.00 0.00 0.00 0.00 0.00 0.00 0.00 0.00 0.00
0.00 0.00 0.00 0.00 0.00 0.00 0.00 0.00 0.00 0.00 0.00 0.00 0.00 0.00 0.00 0.00 0.00 0.01 0.00 0.00 0.02 0.01 0.00 0.00 0.00 0.00 0.00 0.00 0.00 0.00 0.00 0.00 0.00 0.00 0.00 0.01 0.00 0.00 0.00 0.00 0.00 0.00 0.00 0.00 0.00 0.00 0.00 0.00 0.00 0.00 0.00 0.00 0.00 0.00 0.00 0.00 0.00 0.00 0.00 0.00 0.00 0.00 0.00 0.00 0.00 0.00 0.00 0.00 0.00 0.00 0.00 0.00 0.00 0.00
0.00 0.00 0.00 0.00 0.00 0.00 0.00 0.00 0.00 0.00 0.00 0.00 0.01 0.00 0.00 0.01 0.00 0.01 0.01 0.02 0.01 0.03 0.01 0.00 0.00 0.00 0.00 0.00 0.00 0.00 0.00 0.00 0.00 0.00 0.00 0.00 0.00 0.00 0.00 0.00 0.01 0.01 0.01 0.00 0.00 0.00 0.00 0.00 0.00 0.00 0.00 0.00 0.00 0.00 0.00 0.00 0.00 0.00 0.00 0.00 0.00 0.00 0.00 0.00 0.00 0.00 0.00 0.00 0.00 0.00 0.00 0.00 0.00 0.00
0.00 0.00 0.00 0.00 0.00 0.00 0.00 0.00 0.00 0.00 0.00 0.02 0.02 0.01 0.02 0.01 0.00 0.02 0.05 0.05 0.03 0.02 0.04 0.01 0.00 0.00 0.00 0.00 0.00 0.00 0.00 0.00 0.00 0.00 0.00 0.00 0.00 0.00 0.00 0.00 0.01 0.01 0.00 0.00 0.00 0.00 0.00 0.00 0.00 0.00 0.00 0.00 0.00 0.00 0.00 0.00 0.00 0.00 0.00 0.00 0.00 0.00 0.00 0.00 0.00 0.00 0.00 0.00 0.00 0.00 0.00 0.00 0.00 0.00
0.00 0.00 0.00 0.00 0.00 0.00 0.00 0.00 0.00 0.00 0.01 0.00 0.00 0.00 0.05 0.04 0.08 0.07 0.04 0.02 0.01 0.04 0.02 0.03 0.06 0.03 0.03 0.02 0.00 0.00 0.00 0.00 0.00 0.00 0.00 0.00 0.00 0.01 0.00 0.00 0.01 0.01 0.00 0.00 0.00 0.00 0.00 0.00 0.00 0.00 0.00 0.00 0.00 0.00 0.00 0.00 0.00 0.00 0.00 0.00 0.00 0.00 0.00 0.00 0.00 0.00 0.00 0.00 0.00 0.00 0.00 0.00 0.00 0.00
0.00 0.01 0.00 0.00 0.01 0.00 0.00 0.00 0.00 0.01 0.00 0.01 0.01 0.01 0.07 0.02 0.03 0.01 0.02 0.01 0.01 0.06 0.04 0.01 0.01 0.04 0.01 0.00 0.05 0.00 0.00 0.00 0.00 0.01 0.00 0.01 0.01 0.00 0.00 0.00 0.00 0.00 0.00 0.00 0.00 0.00 0.00 0.00 0.00 0.00 0.00 0.00 0.00 0.00 0.00 0.00 0.00 0.00 0.00 0.00 0.00 0.00 0.00 0.00 0.00 0.00 0.00 0.00 0.00 0.00 0.00 0.00 0.00 0.00
0.00 0.00 0.00 0.00 0.00 0.00 0.00 0.00 0.00 0.00 0.07 0.05 0.04 0.00 0.00 0.00 0.00 0.00 0.00 0.00 0.01 0.01 0.01 0.02 0.02 0.01 0.01 0.01 0.01 0.01 0.02 0.00 0.00 0.00 0.01 0.00 0.00 0.00 0.00 0.00 0.00 0.00 0.00 0.00 0.00 0.00 0.00 0.00 0.00 0.00 0.00 0.00 0.00 0.00 0.00 0.00 0.00 0.00 0.00 0.00 0.00 0.00 0.00 0.00 0.00 0.00 0.00 0.00 0.00 0.00 0.00 0.00 0.00 0.00
0.00 0.01 0.00 0.01 0.00 0.01 0.00 0.00 0.00 0.00 0.00 0.00 0.01 0.01 0.01 0.01 0.00 0.00 0.00 0.00 0.00 0.00 0.02 0.01 0.01 0.01 0.01 0.01 0.01 0.01 0.01 0.01 0.00 0.00 0.00 0.00 0.00 0.00 0.00 0.00 0.00 0.00 0.00 0.00 0.00 0.00 0.00 0.00 0.00 0.00 0.00 0.00 0.00 0.00 0.00 0.00 0.00 0.00 0.00 0.00 0.00 0.00 0.00 0.00 0.00 0.00 0.00 0.00 0.00 0.00 0.00 0.00 0.00 0.00
0.00 0.00 0.02 0.01 0.00 0.00 0.00 0.00 0.03 0.01 0.01 0.00 0.00 0.00 0.00 0.00 0.00 0.00 0.00 0.00 0.00 0.00 0.00 0.01 0.00 0.01 0.01 0.00 0.01 0.00 0.00 0.00 0.01 0.01 0.01 0.01 0.00 0.00 0.00 0.00 0.00 0.00 0.00 0.00 0.00 0.00 0.00 0.00 0.00 0.00 0.00 0.00 0.00 0.00 0.00 0.00 0.00 0.00 0.00 0.00 0.00 0.00 0.00 0.00 0.00 0.00 0.00 0.00 0.00 0.00 0.00 0.00 0.00 0.00
0.00 0.01 0.00 0.00 0.00 0.00 0.00 0.01 0.02 0.01 0.00 0.00 0.00 0.00 0.00 0.00 0.01 0.00 0.00 0.00 0.00 0.00 0.00 0.00 0.01 0.01 0.01 0.00 0.00 0.00 0.00 0.00 0.00 0.01 0.01 0.01 0.01 0.01 0.01 0.00 0.00 0.00 0.00 0.00 0.00 0.00 0.00 0.00 0.00 0.00 0.00 0.00 0.00 0.00 0.00 0.00 0.00 0.00 0.00 0.00 0.00 0.00 0.00 0.00 0.00 0.00 0.00 0.00 0.00 0.00 0.00 0.00 0.00 0.00
0.00 0.01 0.01 0.01 0.00 0.00 0.00 0.00 0.02 0.01 0.00 0.00 0.00 0.00 0.00 0.00 0.00 0.00 0.00 0.00 0.00 0.00 0.00 0.00 0.01 0.01 0.00 0.01 0.00 0.00 0.01 0.01 0.00 0.00 0.00 0.00 0.00 0.01 0.01 0.00 0.01 0.00 0.00 0.01 0.01 0.00 0.00 0.00 0.00 0.00 0.00 0.00 0.00 0.00 0.00 0.00 0.00 0.00 0.00 0.00 0.00 0.00 0.00 0.00 0.00 0.00 0.00 0.00 0.00 0.00 0.00 0.00 0.00 0.00
0.01 0.02 0.02 0.02 0.02 0.02 0.01 0.01 0.01 0.02 0.01 0.01 0.01 0.02 0.02 0.03 0.03 0.01 0.01 0.00 0.00 0.03 0.01 0.01 0.00 0.01 0.01 0.01 0.01 0.01 0.01 0.02 0.02 0.01 0.01 0.01 0.01 0.01 0.00 0.00 0.01 0.00 0.00 0.01 0.00 0.00 0.00 0.00 0.00 0.00 0.00 0.00 0.00 0.00 0.00 0.00 0.00 0.00 0.00 0.00 0.00 0.00 0.00 0.00 0.00 0.00 0.00 0.00 0.00 0.00 0.00 0.00 0.00 0.00
0.02 0.02 0.02 0.02 0.02 0.03 0.02 0.00 0.01 0.00 0.00 0.01 0.03 0.07 0.11 0.06 0.02 0.01 0.00 0.00 0.01 0.00 0.00 0.03 0.05 0.03 0.02 0.02 0.02 0.01 0.02 0.01 0.01 0.01 0.02 0.00 0.00 0.00 0.00 0.00 0.01 0.00 0.00 0.01 0.01 0.00 0.00 0.01 0.00 0.00 0.00 0.00 0.00 0.00 0.00 0.00 0.00 0.00 0.00 0.00 0.00 0.00 0.00 0.00 0.00 0.00 0.00 0.00 0.00 0.00 0.00 0.00 0.00 0.00
0.00 0.00 0.00 0.00 0.01 0.01 0.01 0.00 0.00 0.07 0.05 0.04 0.02 0.04 0.00 0.01 0.00 0.02 0.00 0.03 0.03 0.02 0.01 0.03 0.06 0.02 0.01 0.01 0.00 0.01 0.00 0.00 0.00 0.00 0.00 0.00 0.00 0.00 0.00 0.00 0.00 0.00 0.00 0.00 0.01 0.01 0.00 0.00 0.00 0.00 0.00 0.00 0.00 0.00 0.00 0.00 0.00 0.00 0.00 0.00 0.00 0.00 0.00 0.00 0.00 0.00 0.00 0.00 0.00 0.00 0.00 0.00 0.00 0.00
0.00 0.01 0.07 0.09 0.12 0.06 0.03 0.05 0.01 0.01 0.02 0.03 0.03 0.12 0.06 0.04 0.03 0.02 0.01 0.00 0.00 0.01 0.03 0.01 0.00 0.00 0.00 0.00 0.00 0.00 0.00 0.00 0.00 0.00 0.00 0.00 0.00 0.01 0.00 0.01 0.00 0.00 0.00 0.00 0.00 0.00 0.00 0.00 0.00 0.00 0.00 0.00 0.00 0.00 0.00 0.00 0.00 0.00 0.00 0.00 0.00 0.00 0.00 0.00 0.00 0.00 0.00 0.00 0.00 0.00 0.00 0.00 0.00 0.00
0.12 0.14 0.08 0.07 0.07 0.07 0.03 0.03 0.03 0.04 0.05 0.06 0.05 0.03 0.02 0.01 0.02 0.00 0.01 0.00 0.00 0.00 0.00 0.00 0.00 0.00 0.00 0.00 0.00 0.00 0.00 0.00 0.00 0.00 0.00 0.00 0.00 0.01 0.01 0.00 0.00 0.00 0.00 0.00 0.00 0.00 0.00 0.00 0.00 0.00 0.00 0.00 0.00 0.00 0.00 0.00 0.00 0.00 0.00 0.00 0.00 0.00 0.00 0.00 0.00 0.00 0.00 0.00 0.00 0.00 0.00 0.00 0.00 0.00
0.15 0.07 0.11 0.06 0.03 0.02 0.02 0.12 0.02 0.03 0.02 0.01 0.00 0.00 0.01 0.02 0.01 0.01 0.00 0.01 0.00 0.00 0.00 0.00 0.00 0.00 0.00 0.00 0.00 0.00 0.00 0.00 0.00 0.00 0.03 0.01 0.02 0.01 0.01 0.01 0.01 0.00 0.00 0.00 0.00 0.00 0.00 0.00 0.00 0.00 0.00 0.00 0.00 0.00 0.00 0.00 0.00 0.00 0.00 0.00 0.00 0.00 0.00 0.00 0.00 0.00 0.00 0.00 0.00 0.00 0.00 0.00 0.00 0.00
0.03 0.02 0.00 0.00 0.00 0.00 0.00 0.00 0.00 0.00 0.00 0.00 0.00 0.00 0.01 0.02 0.00 0.00 0.00 0.00 0.00 0.00 0.00 0.00 0.00 0.00 0.00 0.00 0.00 0.01 0.00 0.00 0.00 0.00 0.03 0.02 0.03 0.01 0.00 0.00 0.00 0.00 0.00 0.00 0.00 0.00 0.00 0.00 0.00 0.00 0.00 0.01 0.00 0.00 0.00 0.00 0.00 0.00 0.00 0.00 0.00 0.00 0.00 0.00 0.00 0.00 0.00 0.00 0.00 0.00 0.00 0.00 0.00 0.00
0.00 0.01 0.00 0.00 0.00 0.00 0.00 0.00 0.00 0.00 0.00 0.00 0.00 0.00 0.00 0.00 0.00 0.00 0.00 0.00 0.00 0.00 0.00 0.00 0.00 0.00 0.00 0.00 0.00 0.00 0.00 0.00 0.00 0.00 0.02 0.03 0.01 0.00 0.00 0.00 0.00 0.00 0.00 0.00 0.00 0.00 0.00 0.00 0.00 0.00 0.03 0.04 0.04 0.01 0.00 0.00 0.00 0.00 0.00 0.01 0.01 0.00 0.00 0.00 0.00 0.00 0.00 0.00 0.00 0.00 0.00 0.00 0.00 0.00
0.01 0.01 0.12 0.00 0.00 0.00 0.00 0.00 0.00 0.00 0.00 0.00 0.00 0.00 0.00 0.00 0.00 0.00 0.00 0.00 0.00 0.00 0.00 0.00 0.00 0.00 0.00 0.00 0.00 0.00 0.00 0.00 0.00 0.00 0.00 0.00 0.00 0.00 0.00 0.00 0.00 0.00 0.00 0.00 0.00 0.00 0.00 0.00 0.00 0.03 0.04 0.08 0.02 0.01 0.02 0.00 0.00 0.00 0.01 0.01 0.01 0.00 0.00 0.00 0.02 0.03 0.02 0.01 0.00 0.00 0.00 0.00 0.00 0.00
0.13 0.01 0.08 0.01 0.00 0.00 0.00 0.00 0.00 0.00 0.00 0.00 0.00 0.00 0.00 0.00 0.00 0.00 0.00 0.00 0.00 0.00 0.00 0.00 0.00 0.00 0.00 0.00 0.00 0.00 0.00 0.00 0.00 0.00 0.00 0.00 0.00 0.00 0.00 0.00 0.00 0.00 0.00 0.00 0.00 0.00 0.01 0.02 0.03 0.03 0.04 0.03 0.09 0.04 0.04 0.07 0.01 0.01 0.01 0.03 0.02 0.02 0.07 0.09 0.09 0.07 0.06 0.03 0.01 0.00 0.00 0.00 0.00 0.00
0.06 0.06 0.01 0.00 0.00 0.00 0.00 0.00 0.00 0.00 0.00 0.00 0.00 0.00 0.00 0.00 0.00 0.00 0.00 0.00 0.00 0.00 0.00 0.00 0.00 0.00 0.00 0.00 0.00 0.00 0.00 0.00 0.00 0.00 0.00 0.00 0.00 0.00 0.00 0.00 0.00 0.00 0.00 0.00 0.00 0.00 0.02 0.01 0.01 0.05 0.07 0.03 0.06 0.10 0.07 0.04 0.01 0.02 0.00 0.04 0.03 0.03 0.04 0.04 0.06 0.06 0.05 0.10 0.05 0.02 0.00 0.00 0.00 0.00
0.16 0.18 0.01 0.00 0.00 0.00 0.00 0.00 0.00 0.00 0.00 0.00 0.00 0.00 0.00 0.00 0.00 0.00 0.00 0.00 0.00 0.00 0.00 0.00 0.00 0.00 0.00 0.00 0.00 0.00 0.00 0.00 0.00 0.00 0.00 0.00 0.00 0.00 0.00 0.00 0.00 0.00 0.00 0.00 0.00 0.00 0.00 0.07 0.04 0.03 0.07 0.08 0.07 0.08 0.09 0.02 0.02 0.03 0.03 0.01 0.03 0.01 0.01 0.01 0.02 0.01 0.01 0.01 0.05 0.02 0.01 0.00 0.00 0.00
0.05 0.00 0.00 0.00 0.00 0.00 0.00 0.00 0.00 0.00 0.00 0.00 0.00 0.00 0.00 0.00 0.00 0.00 0.00 0.00 0.00 0.00 0.00 0.00 0.00 0.00 0.00 0.00 0.00 0.00 0.00 0.00 0.00 0.00 0.00 0.00 0.00 0.00 0.00 0.00 0.00 0.00 0.00 0.00 0.01 0.02 0.04 0.04 0.05 0.03 0.01 0.01 0.02 0.04 0.05 0.09 0.11 0.03 0.08 0.03 0.02 0.13 0.02 0.02 0.01 0.02 0.02 0.01 0.02 0.04 0.02 0.00 0.00 0.00
0.00 0.00 0.00 0.00 0.00 0.00 0.00 0.00 0.00 0.00 0.00 0.00 0.00 0.00 0.00 0.00 0.00 0.00 0.00 0.00 0.00 0.00 0.00 0.00 0.00 0.00 0.00 0.00 0.00 0.00 0.00 0.00 0.00 0.00 0.00 0.00 0.00 0.00 0.00 0.00 0.00 0.00 0.00 0.00 0.01 0.01 0.00 0.00 0.00 0.01 0.01 0.01 0.01 0.04 0.09 0.14 0.11 0.06 0.06 0.05 0.14 0.06 0.09 0.11 0.12 0.10 0.33 0.15 0.06 0.05 0.02 0.00 0.00 0.00
0.00 0.00 0.00 0.00 0.00 0.00 0.00 0.00 0.00 0.00 0.00 0.00 0.00 0.00 0.00 0.00 0.00 0.00 0.00 0.00 0.00 0.00 0.00 0.00 0.00 0.00 0.00 0.00 0.00 0.00 0.00 0.00 0.00 0.00 0.00 0.00 0.00 0.00 0.00 0.00 0.00 0.00 0.00 0.00 0.00 0.00 0.00 0.00 0.00 0.00 0.01 0.02 0.02 0.05 0.06 0.10 0.10 0.06 0.04 0.06 0.10 0.24 0.25 0.31 0.20 0.13 0.23 0.37 0.12 0.03 0.04 0.02 0.00 0.00
0.00 0.00 0.00 0.00 0.00 0.00 0.00 0.00 0.00 0.00 0.00 0.00 0.00 0.00 0.00 0.00 0.00 0.00 0.00 0.00 0.00 0.00 0.00 0.00 0.00 0.00 0.00 0.00 0.00 0.00 0.00 0.00 0.00 0.00 0.00 0.00 0.00 0.00 0.00 0.00 0.00 0.00 0.00 0.00 0.00 0.00 0.00 0.00 0.00 0.00 0.01 0.02 0.07 0.06 0.05 0.05 0.08 0.07 0.04 0.05 0.05 0.03 0.00 0.06 0.08 0.08 0.04 0.24 0.35 0.16 0.04 0.02 0.00 0.00
0.00 0.00 0.00 0.00 0.00 0.01 0.01 0.00 0.00 0.00 0.00 0.00 0.00 0.00 0.00 0.00 0.00 0.00 0.00 0.00 0.00 0.00 0.00 0.00 0.00 0.00 0.00 0.00 0.00 0.00 0.00 0.00 0.00 0.00 0.00 0.00 0.00 0.00 0.00 0.00 0.00 0.00 0.01 0.01 0.01 0.00 0.00 0.00 0.00 0.00 0.01 0.02 0.05 0.08 0.11 0.09 0.05 0.04 0.02 0.01 0.02 0.02 0.00 0.01 0.06 0.01 0.02 0.05 0.24 0.36 0.11 0.05 0.01 0.00
0.00 0.00 0.01 0.02 0.02 0.02 0.01 0.00 0.00 0.00 0.00 0.00 0.00 0.00 0.00 0.00 0.00 0.00 0.00 0.00 0.00 0.00 0.00 0.00 0.00 0.00 0.00 0.00 0.00 0.00 0.00 0.00 0.00 0.00 0.00 0.00 0.00 0.00 0.00 0.00 0.00 0.00 0.00 0.01 0.00 0.01 0.01 0.00 0.01 0.01 0.00 0.02 0.03 0.07 0.17 0.18 0.10 0.04 0.02 0.01 0.01 0.01 0.02 0.01 0.01 0.03 0.05 0.09 0.08 0.11 0.09 0.07 0.02 0.00
0.00 0.00 0.00 0.02 0.01 0.00 0.00 0.00 0.00 0.00 0.00 0.00 0.00 0.00 0.00 0.00 0.00 0.00 0.00 0.00 0.00 0.00 0.00 0.00 0.00 0.00 0.00 0.00 0.00 0.00 0.00 0.00 0.00 0.00 0.00 0.00 0.00 0.00 0.00 0.00 0.00 0.00 0.00 0.00 0.00 0.00 0.01 0.01 0.05 0.05 0.01 0.01 0.01 0.02 0.13 0.14 0.10 0.06 0.02 0.03 0.02 0.03 0.02 0.01 0.02 0.05 0.17 0.57 0.24 0.11 0.07 0.06 0.03 0.02
0.00 0.00 0.00 0.00 0.00 0.00 0.00 0.00 0.00 0.00 0.00 0.00 0.00 0.00 0.00 0.00 0.00 0.00 0.00 0.00 0.00 0.00 0.00 0.00 0.00 0.00 0.00 0.00 0.00 0.00 0.00 0.00 0.00 0.00 0.00 0.00 0.00 0.00 0.00 0.00 0.00 0.00 0.01 0.00 0.00 0.00 0.00 0.01 0.02 0.02 0.04 0.04 0.03 0.04 0.07 0.09 0.12 0.09 0.09 0.06 0.02 0.14 0.30 0.14 0.22 0.15 0.45 0.22 0.28 0.15 0.15 0.09 0.02 0.00
0.00 0.00 0.01 0.00 0.00 0.00 0.00 0.00 0.00 0.00 0.00 0.00 0.00 0.00 0.00 0.00 0.00 0.00 0.00 0.00 0.00 0.00 0.00 0.00 0.00 0.00 0.00 0.00 0.00 0.00 0.00 0.00 0.00 0.00 0.00 0.00 0.00 0.00 0.00 0.00 0.00 0.00 0.00 0.00 0.00 0.01 0.01 0.01 0.03 0.03 0.04 0.04 0.04 0.04 0.02 0.02 0.06 0.09 0.06 0.10 0.05 0.03 0.05 0.03 0.11 0.07 0.29 0.47 0.40 0.12 0.08 0.06 0.07 0.03
0.01 0.01 0.04 0.05 0.00 0.00 0.00 0.00 0.00 0.00 0.00 0.00 0.00 0.00 0.00 0.00 0.00 0.00 0.00 0.00 0.00 0.00 0.00 0.00 0.00 0.00 0.00 0.00 0.00 0.00 0.00 0.00 0.00 0.00 0.00 0.00 0.00 0.00 0.00 0.00 0.00 0.00 0.00 0.00 0.00 0.00 0.00 0.01 0.02 0.02 0.04 0.06 0.07 0.04 0.04 0.04 0.03 0.04 0.11 0.06 0.06 0.12 0.04 0.05 0.03 0.03 0.05 0.12 0.22 0.51 0.30 0.20 0.13 0.37
0.02 0.00 0.00 0.00 0.00 0.00 0.00 0.00 0.00 0.00 0.00 0.00 0.00 0.00 0.00 0.00 0.00 0.00 0.00 0.00 0.00 0.00 0.00 0.00 0.00 0.00 0.00 0.00 0.00 0.00 0.00 0.00 0.00 0.00 0.00 0.00 0.00 0.00 0.00 0.00 0.00 0.00 0.00 0.00 0.00 0.00 0.00 0.01 0.03 0.05 0.05 0.05 0.08 0.07 0.06 0.08 0.11 0.06 0.06 0.08 0.07 0.10 0.07 0.08 0.06 0.02 0.03 0.08 0.08 0.16 0.19 0.23 0.36 0.65
0.00 0.00 0.00 0.00 0.00 0.00 0.00 0.00 0.00 0.00 0.00 0.00 0.00 0.00 0.00 0.00 0.00 0.00 0.00 0.00 0.00 0.00 0.00 0.00 0.00 0.00 0.00 0.00 0.00 0.00 0.00 0.00 0.00 0.00 0.00 0.00 0.00 0.00 0.00 0.00 0.00 0.00 0.00 0.00 0.00 0.00 0.00 0.02 0.09 0.05 0.03 0.04 0.05 0.06 0.06 0.06 0.05 0.03 0.02 0.04 0.05 0.10 0.16 0.20 0.16 0.10 0.03 0.03 0.02 0.10 0.10 0.10 0.23 0.31
0.00 0.00 0.00 0.00 0.00 0.00 0.00 0.00 0.00 0.00 0.00 0.00 0.00 0.00 0.00 0.00 0.00 0.00 0.00 0.00 0.00 0.00 0.00 0.00 0.00 0.00 0.00 0.00 0.00 0.00 0.00 0.00 0.00 0.00 0.00 0.00 0.00 0.00 0.00 0.00 0.00 0.00 0.00 0.00 0.00 0.00 0.00 0.01 0.05 0.05 0.01 0.02 0.03 0.03 0.03 0.02 0.01 0.01 0.02 0.02 0.06 0.07 0.08 0.10 0.11 0.11 0.12 0.06 0.03 0.07 0.13 0.05 0.07 0.09
0.00 0.00 0.00 0.00 0.00 0.00 0.00 0.00 0.00 0.00 0.00 0.00 0.00 0.00 0.00 0.00 0.00 0.00 0.00 0.00 0.00 0.00 0.00 0.00 0.00 0.00 0.00 0.00 0.00 0.00 0.00 0.00 0.00 0.00 0.00 0.00 0.00 0.00 0.00 0.00 0.00 0.00 0.00 0.00 0.00 0.00 0.00 0.01 0.13 0.06 0.01 0.01 0.01 0.04 0.04 0.05 0.04 0.03 0.02 0.02 0.07 0.08 0.07 0.06 0.07 0.08 0.09 0.12 0.06 0.04 0.06 0.11 0.26 0.16
0.00 0.00 0.00 0.00 0.00 0.00 0.00 0.00 0.00 0.00 0.00 0.00 0.00 0.00 0.00 0.00 0.00 0.00 0.00 0.00 0.00 0.00 0.00 0.00 0.00 0.00 0.00 0.00 0.00 0.00 0.00 0.00 0.00 0.00 0.00 0.00 0.00 0.00 0.00 0.00 0.00 0.00 0.00 0.00 0.00 0.00 0.00 0.00 0.02 0.02 0.01 0.01 0.02 0.02 0.04 0.04 0.05 0.05 0.03 0.03 0.03 0.06 0.09 0.06 0.06 0.08 0.11 0.12 0.12 0.16 0.16 0.28 0.28 0.11
0.00 0.00 0.00 0.00 0.00 0.00 0.00 0.00 0.00 0.00 0.00 0.00 0.00 0.00 0.00 0.00 0.00 0.00 0.00 0.00 0.00 0.00 0.00 0.00 0.00 0.00 0.00 0.00 0.00 0.00 0.00 0.00 0.00 0.00 0.00 0.00 0.00 0.00 0.00 0.00 0.00 0.00 0.00 0.00 0.00 0.00 0.00 0.01 0.01 0.04 0.04 0.02 0.02 0.01 0.02 0.02 0.04 0.05 0.05 0.03 0.02 0.02 0.02 0.04 0.05 0.08 0.11 0.11 0.09 0.07 0.07 0.17 0.37 0.31
0.00 0.00 0.00 0.00 0.00 0.00 0.00 0.00 0.00 0.00 0.00 0.00 0.00 0.00 0.00 0.00 0.00 0.00 0.00 0.00 0.00 0.00 0.00 0.00 0.00 0.00 0.00 0.00 0.00 0.00 0.00 0.00 0.00 0.00 0.00 0.00 0.00 0.00 0.00 0.00 0.00 0.00 0.00 0.00 0.00 0.00 0.00 0.02 0.00 0.11 0.05 0.01 0.02 0.01 0.02 0.02 0.03 0.04 0.06 0.04 0.03 0.03 0.04 0.04 0.07 0.08 0.09 0.11 0.11 0.09 0.10 0.13 0.12 0.09
MSLP
1017.47 1017.35 1017.47 1017.79 1017.91 1017.99 1017.83 1017.79 1017.71 1017.71 1017.83 1018.03 1018.15 1018.43 1019.11 1019.47 1020.27 1020.43 1019.99 1019.43 1018.87 1017.91 1017.27 1017.79 1016.91 1016.71 1017.07 1017.31 1017.19 1017.35 1017.39 1017.35 1017.39 1017.43 1017.39 1017.31 1017.07 1016.95 1017.11 1017.15 1017.15 1017.19 1017.23 1017.23 1017.23 1017.23 1017.23 1017.19 1017.11 1017.03 1016.95 1016.87 1016.79 1016.67 1016.59 1016.47 1016.39 1016.31 1016.23 1016.11 1016.03 1015.95 1015.91 1015.83 1015.75 1015.63 1015.55 1015.47 1015.39 1015.39 1015.35 1015.31 1015.27 1015.19
1017.71 1017.63 1017.55 1017.47 1017.63 1017.55 1017.63 1017.55 1017.39 1017.43 1017.63 1017.91 1018.07 1018.31 1018.35 1018.59 1019.47 1019.71 1020.27 1019.71 1018.75 1018.31 1017.31 1017.07 1017.11 1016.99 1017.07 1017.11 1017.15 1017.11 1017.19 1017.11 1017.11 1017.03 1016.99 1016.95 1016.83 1016.71 1016.79 1016.83 1016.91 1016.95 1016.91 1016.83 1016.83 1016.83 1016.87 1016.91 1016.83 1016.75 1016.67 1016.59 1016.47 1016.39 1016.31 1016.19 1016.11 1016.03 1015.95 1015.83 1015.75 1015.63 1015.55 1015.51 1015.43 1015.31 1015.23 1015.15 1015.11 1015.03 1014.99 1014.95 1014.95 1014.91
1017.55 1017.71 1017.75 1017.59 1017.63 1017.39 1017.39 1017.31 1017.19 1017.19 1017.43 1017.63 1017.71 1017.95 1018.03 1018.19 1018.43 1018.87 1019.23 1019.87 1018.39 1017.83 1018.27 1017.35 1016.59 1016.67 1016.55 1016.35 1016.47 1016.67 1016.67 1016.67 1016.75 1016.71 1016.63 1016.59 1016.55 1016.59 1016.51 1016.59 1016.63 1016.59 1016.51 1016.43 1016.43 1016.39 1016.43 1016.43 1016.43 1016.39 1016.35 1016.27 1016.15 1016.07 1015.99 1015.91 1015.79 1015.67 1015.55 1015.47 1015.39 1015.27 1015.19 1015.11 1015.07 1014.99 1014.91 1014.83 1014.75 1014.71 1014.67 1014.59 1014.55 1014.55
1016.95 1017.27 1017.55 1017.55 1017.59 1017.35 1017.23 1017.23 1017.27 1017.43 1017.39 1017.43 1017.67 1017.71 1017.71 1017.67 1017.63 1017.95 1018.51 1019.07 1018.91 1017.63 1017.63 1017.35 1016.87 1016.47 1016.35 1016.11 1016.35 1016.47 1016.43 1016.27 1016.35 1016.35 1016.27 1016.15 1016.23 1016.27 1016.11 1015.99 1016.07 1016.07 1016.03 1015.99 1015.95 1015.91 1015.91 1015.99 1016.03 1015.99 1015.95 1015.87 1015.79 1015.71 1015.59 1015.47 1015.43 1015.35 1015.23 1015.15 1015.07 1014.95 1014.87 1014.75 1014.67 1014.59 1014.55 1014.47 1014.43 1014.35 1014.31 1014.27 1014.23 1014.15
1017.11 1017.15 1017.31 1017.35 1017.19 1016.99 1017.23 1017.19 1017.27 1017.43 1017.47 1017.39 1017.47 1017.51 1017.59 1017.71 1017.59 1017.87 1018.23 1018.63 1018.51 1017.59 1016.91 1017.07 1016.87 1016.31 1016.23 1016.39 1015.99 1016.15 1016.31 1016.27 1016.07 1015.95 1015.91 1015.95 1015.99 1015.91 1015.79 1015.55 1015.35 1015.35 1015.43 1015.47 1015.47 1015.51 1015.55 1015.59 1015.59 1015.51 1015.43 1015.39 1015.31 1015.23 1015.19 1015.11 1014.99 1014.91 1014.87 1014.75 1014.63 1014.55 1014.43 1014.31 1014.23 1014.15 1014.11 1014.07 1014.03 1013.95 1013.91 1013.87 1013.87 1013.79
1016.99 1017.03 1017.19 1017.07 1016.99 1016.87 1017.07 1017.07 1017.27 1017.35 1017.35 1017.07 1016.91 1017.03 1017.27 1017.43 1017.43 1017.31 1018.03 1018.19 1018.31 1018.27 1017.19 1017.03 1016.43 1016.31 1015.95 1016.35 1015.71 1015.95 1015.95 1015.75 1015.59 1015.67 1015.71 1015.63 1015.59 1015.55 1015.39 1015.15 1014.79 1014.63 1014.71 1014.79 1014.95 1015.11 1015.19 1015.15 1015.11 1014.99 1014.91 1014.83 1014.79 1014.71 1014.67 1014.59 1014.55 1014.43 1014.35 1014.27 1014.19 1014.07 1013.99 1013.91 1013.83 1013.71 1013.63 1013.59 1013.55 1013.55 1013.47 1013.47 1013.47 1013.43
1016.71 1016.95 1017.03 1016.95 1016.79 1016.67 1016.87 1016.95 1017.07 1017.07 1017.07 1016.79 1016.99 1017.11 1017.07 1017.31 1017.23 1017.15 1017.39 1017.95 1018.19 1018.11 1017.63 1016.87 1016.75 1016.39 1016.07 1016.19 1015.99 1015.67 1015.55 1015.43 1015.39 1015.47 1015.35 1015.35 1015.23 1015.11 1014.99 1014.87 1014.59 1014.39 1014.51 1014.63 1014.67 1014.67 1014.67 1014.59 1014.55 1014.43 1014.39 1014.31 1014.27 1014.23 1014.19 1014.07 1013.99 1013.91 1013.83 1013.75 1013.67 1013.59 1013.47 1013.43 1013.39 1013.31 1013.19 1013.11 1013.11 1013.07 1013.07 1013.03 1012.99 1012.99
1016.51 1016.67 1016.79 1016.67 1016.47 1016.51 1016.75 1016.67 1016.67 1016.63 1016.63 1016.83 1017.03 1017.15 1017.07 1017.15 1017.27 1017.15 1017.27 1017.83 1018.39 1018.07 1017.99 1017.07 1016.79 1016.35 1016.31 1015.99 1015.63 1015.43 1015.39 1015.47 1015.43 1015.19 1014.95 1014.75 1014.91 1014.87 1014.63 1014.55 1014.47 1014.31 1014.27 1014.31 1014.31 1014.23 1014.15 1014.07 1013.99 1013.95 1013.87 1013.83 1013.79 1013.75 1013.63 1013.55 1013.47 1013.39 1013.27 1013.19 1013.07 1013.03 1012.95 1012.91 1012.87 1012.83 1012.71 1012.67 1012.59 1012.59 1012.59 1012.59 1012.55 1012.55
1016.19 1016.27 1016.39 1016.31 1016.27 1016.35 1016.67 1016.59 1016.47 1016.31 1016.51 1016.59 1016.79 1017.11 1017.07 1017.11 1017.23 1017.39 1017.59 1017.91 1017.95 1018.07 1017.95 1017.31 1016.55 1016.15 1016.07 1015.79 1015.63 1015.47 1015.79 1015.59 1015.35 1015.11 1015.03 1014.75 1014.63 1014.55 1014.27 1013.99 1013.75 1013.67 1013.71 1013.75 1013.79 1013.75 1013.67 1013.55 1013.51 1013.39 1013.31 1013.27 1013.19 1013.11 1013.03 1012.99 1012.87 1012.75 1012.67 1012.63 1012.55 1012.43 1012.39 1012.35 1012.35 1012.27 1012.19 1012.15 1012.11 1012.07 1012.11 1012.11 1012.07 1012.07
1015.95 1016.11 1016.19 1016.15 1016.11 1016.15 1016.39 1016.43 1016.35 1016.19 1016.31 1016.31 1016.55 1016.79 1017.07 1017.31 1017.19 1017.23 1017.31 1017.47 1017.55 1017.51 1017.31 1017.19 1017.03 1016.35 1016.35 1016.11 1015.79 1015.47 1015.51 1015.71 1015.59 1015.27 1014.91 1014.59 1014.39 1014.35 1014.35 1013.99 1013.63 1013.39 1013.23 1013.19 1013.11 1013.07 1012.99 1012.91 1012.83 1012.71 1012.63 1012.59 1012.55 1012.47 1012.39 1012.31 1012.15 1012.11 1012.07 1012.03 1011.95 1011.83 1011.79 1011.75 1011.71 1011.63 1011.63 1011.63 1011.59 1011.59 1011.55 1011.55 1011.55 1011.55
1015.63 1015.79 1015.91 1015.95 1015.99 1016.03 1016.07 1016.23 1016.31 1016.27 1016.23 1016.31 1016.71 1016.91 1016.95 1016.91 1017.03 1017.11 1017.15 1017.07 1016.99 1016.87 1016.79 1016.63 1016.47 1016.47 1015.95 1015.79 1015.87 1015.23 1015.11 1015.27 1015.39 1015.47 1015.19 1014.95 1014.35 1014.03 1013.95 1013.95 1013.51 1013.11 1012.87 1012.63 1012.59 1012.47 1012.31 1012.15 1012.07 1011.99 1012.03 1011.95 1011.87 1011.79 1011.71 1011.55 1011.47 1011.43 1011.39 1011.31 1011.27 1011.23 1011.15 1011.03 1010.99 1010.99 1011.03 1011.03 1011.03 1010.95 1010.95 1010.99 1010.95 1010.95
1015.47 1015.51 1015.51 1015.47 1015.51 1015.59 1015.71 1015.91 1016.07 1016.03 1016.07 1016.27 1016.59 1016.63 1016.79 1016.79 1016.71 1016.71 1016.71 1016.71 1016.67 1016.63 1016.55 1016.47 1016.31 1015.99 1015.99 1015.71 1015.27 1014.99 1015.27 1015.59 1015.35 1014.91 1014.87 1014.95 1014.59 1014.15 1013.71 1013.59 1013.67 1013.23 1012.99 1012.79 1012.31 1011.95 1011.75 1011.59 1011.43 1011.39 1011.31 1011.27 1011.23 1011.11 1010.95 1010.83 1010.71 1010.59 1010.55 1010.55 1010.47 1010.39 1010.43 1010.43 1010.43 1010.47 1010.43 1010.35 1010.31 1010.27 1010.23 1010.23 1010.23 1010.27
1015.39 1015.35 1015.35 1015.43 1015.35 1015.35 1015.63 1015.83 1015.95 1015.99 1016.03 1016.27 1016.63 1016.59 1016.63 1016.79 1016.67 1016.55 1016.51 1016.51 1016.51 1016.47 1016.39 1016.31 1015.95 1015.87 1015.87 1015.75 1015.67 1015.47 1015.39 1015.51 1015.39 1014.75 1014.55 1014.55 1014.19 1013.91 1013.79 1013.47 1013.11 1012.91 1012.87 1012.51 1012.27 1012.07 1011.79 1011.59 1011.35 1011.11 1010.99 1010.71 1010.59 1010.35 1010.27 1009.95 1009.83 1009.67 1009.59 1009.59 1009.63 1009.79 1009.91 1009.91 1009.87 1009.83 1009.79 1009.75 1009.67 1009.59 1009.55 1009.51 1009.55 1009.55
1015.31 1015.23 1015.11 1015.07 1015.19 1015.39 1015.51 1015.59 1015.63 1015.71 1015.75 1015.87 1016.03 1016.23 1016.27 1016.35 1016.35 1016.39 1016.43 1016.39 1016.31 1016.31 1016.35 1016.15 1015.99 1016.03 1015.87 1015.47 1015.27 1015.23 1014.91 1014.59 1014.31 1014.43 1014.39 1014.47 1014.07 1013.87 1013.79 1013.39 1013.03 1012.55 1012.47 1012.43 1012.39 1012.07 1011.67 1011.55 1011.23 1011.03 1010.79 1010.31 1010.15 1009.79 1009.39 1009.15 1008.99 1008.95 1009.07 1009.15 1009.19 1009.23 1009.23 1009.23 1009.23 1009.19 1009.11 1008.99 1008.91 1008.83 1008.83 1008.79 1008.79 1008.87
1015.27 1015.11 1015.03 1015.07 1015.11 1015.31 1015.43 1015.51 1015.55 1015.51 1015.59 1015.71 1015.71 1015.87 1016.15 1016.27 1016.47 1016.43 1016.31 1016.11 1015.91 1015.99 1015.91 1015.67 1015.67 1015.67 1015.63 1015.27 1014.87 1014.79 1014.55 1014.35 1014.35 1014.35 1014.27 1014.23 1014.07 1014.19 1014.23 1014.07 1012.99 1012.31 1012.27 1012.39 1012.35 1011.99 1011.43 1011.35 1011.35 1010.95 1010.63 1010.11 1009.63 1009.27 1008.91 1008.75 1008.67 1008.63 1008.55 1008.51 1008.47 1008.51 1008.55 1008.59 1008.59 1008.55 1008.43 1008.31 1008.15 1008.07 1008.03 1008.03 1008.03 1008.07
1015.03 1015.07 1015.07 1015.03 1015.03 1015.15 1015.23 1015.35 1015.35 1015.39 1015.39 1015.47 1015.67 1015.87 1015.87 1015.83 1015.83 1015.91 1015.91 1015.83 1015.75 1015.71 1015.67 1015.59 1015.47 1015.39 1015.23 1014.95 1014.71 1014.51 1014.31 1014.27 1014.19 1014.15 1014.15 1014.15 1014.11 1014.03 1013.91 1013.67 1013.55 1012.39 1012.11 1012.35 1012.31 1011.87 1011.23 1011.03 1010.95 1010.71 1010.11 1009.55 1009.19 1008.83 1008.43 1008.27 1008.11 1007.87 1007.87 1007.99 1007.95 1007.91 1007.91 1007.91 1007.91 1007.83 1007.71 1007.59 1007.47 1007.35 1007.31 1007.27 1007.27 1007.31
1014.91 1014.99 1015.07 1015.07 1015.11 1015.07 1015.15 1015.19 1015.07 1015.19 1015.19 1015.31 1015.43 1015.43 1015.43 1015.39 1015.47 1015.47 1015.35 1015.27 1015.35 1015.31 1015.51 1015.51 1015.27 1014.99 1014.75 1014.79 1014.59 1014.39 1014.63 1014.59 1014.71 1014.35 1014.27 1013.99 1013.83 1013.75 1013.67 1013.31 1012.87 1012.35 1012.07 1012.27 1012.15 1011.79 1011.07 1010.83 1010.59 1010.27 1009.55 1009.11 1008.67 1008.11 1007.67 1007.63 1007.59 1007.55 1007.55 1007.43 1007.31 1007.19 1007.11 1007.03 1007.03 1006.95 1006.83 1006.71 1006.59 1006.51 1006.47 1006.43 1006.43 1006.47
1014.71 1014.83 1014.87 1015.03 1015.19 1015.23 1015.23 1014.99 1014.99 1014.99 1015.03 1015.07 1015.19 1015.23 1015.15 1015.11 1014.99 1015.07 1015.11 1014.99 1015.03 1015.15 1015.23 1015.11 1014.95 1014.39 1014.35 1014.71 1014.59 1014.47 1014.43 1014.43 1014.55 1014.51 1014.35 1014.11 1013.95 1013.79 1013.55 1012.99 1012.71 1012.07 1011.87 1012.11 1011.87 1011.51 1010.99 1010.55 1010.23 1009.75 1009.15 1008.59 1008.03 1007.63 1007.35 1007.27 1007.11 1006.91 1006.79 1006.71 1006.63 1006.55 1006.47 1006.35 1006.19 1006.07 1005.95 1005.79 1005.67 1005.59 1005.55 1005.55 1005.59 1005.63
1014.35 1014.51 1014.63 1014.63 1014.79 1014.95 1015.03 1014.95 1014.95 1014.95 1015.03 1015.27 1015.39 1015.39 1015.27 1015.07 1014.87 1014.75 1014.55 1014.35 1014.35 1014.55 1014.51 1014.47 1014.47 1014.43 1014.23 1014.07 1013.95 1014.03 1014.07 1014.19 1014.23 1014.23 1014.19 1014.03 1013.79 1013.35 1012.91 1012.55 1012.15 1011.71 1011.27 1011.15 1011.39 1011.39 1010.47 1009.95 1009.75 1009.23 1008.67 1008.07 1007.67 1007.35 1007.07 1006.91 1006.63 1006.39 1006.31 1006.15 1006.07 1005.99 1005.87 1005.67 1005.43 1005.23 1005.03 1004.87 1004.71 1004.63 1004.63 1004.63 1004.67 1004.79
1014.03 1014.19 1014.59 1015.07 1015.27 1015.47 1015.23 1015.03 1015.11 1015.19 1015.15 1015.23 1015.23 1015.27 1015.35 1015.07 1014.75 1014.47 1014.03 1013.79 1013.59 1013.55 1013.55 1013.67 1013.67 1013.47 1013.47 1013.71 1013.91 1013.95 1014.03 1014.07 1014.03 1013.83 1013.51 1013.35 1013.31 1013.27 1013.07 1012.79 1011.95 1011.59 1010.75 1010.67 1010.91 1010.71 1010.07 1009.43 1009.43 1008.95 1008.43 1007.95 1007.71 1007.23 1006.79 1006.35 1006.15 1005.91 1005.79 1005.75 1005.71 1005.55 1005.27 1004.95 1004.67 1004.39 1004.15 1003.95 1003.75 1003.67 1003.63 1003.67 1003.75 1003.91
1013.95 1014.11 1014.23 1014.39 1014.63 1014.79 1014.87 1015.07 1015.23 1015.31 1015.23 1015.19 1015.19 1015.15 1015.07 1014.83 1014.43 1014.11 1013.67 1013.43 1013.31 1013.23 1013.27 1013.27 1013.31 1013.43 1013.55 1013.63 1013.71 1013.79 1013.87 1013.91 1013.79 1013.87 1013.95 1013.87 1013.23 1012.99 1012.91 1012.39 1012.11 1011.51 1010.79 1010.23 1010.19 1010.03 1009.83 1009.27 1009.03 1008.67 1008.27 1008.11 1007.75 1007.11 1006.55 1005.99 1005.59 1005.47 1005.43 1005.35 1005.15 1004.83 1004.51 1004.19 1003.79 1003.47 1003.19 1002.95 1002.75 1002.67 1002.63 1002.71 1002.87 1003.07
1013.79 1013.83 1013.95 1013.95 1014.03 1014.35 1014.63 1015.03 1015.31 1015.31 1015.15 1015.03 1015.03 1015.07 1014.91 1014.63 1014.31 1013.95 1013.51 1013.03 1012.83 1013.03 1013.15 1013.23 1013.31 1013.39 1013.43 1013.43 1013.47 1013.51 1013.51 1013.47 1013.55 1013.79 1013.83 1012.99 1012.71 1012.75 1012.59 1012.35 1011.83 1011.11 1010.59 1010.19 1009.71 1009.79 1009.59 1009.11 1008.95 1008.71 1008.07 1007.83 1007.31 1006.67 1006.15 1005.83 1005.55 1005.27 1004.95 1004.71 1004.43 1004.07 1003.63 1003.23 1002.87 1002.55 1002.27 1002.03 1001.83 1001.71 1001.71 1001.79 1002.03 1002.35
1013.67 1013.71 1013.83 1013.99 1014.19 1014.47 1014.63 1015.11 1015.27 1015.15 1014.95 1014.79 1014.67 1014.55 1014.43 1014.39 1014.23 1013.63 1013.23 1013.31 1013.31 1013.31 1013.27 1013.19 1013.23 1013.23 1013.19 1013.11 1013.03 1012.87 1012.87 1012.83 1012.75 1012.83 1012.75 1012.43 1012.47 1012.47 1012.03 1011.47 1011.07 1010.95 1010.35 1009.59 1009.31 1009.95 1009.47 1009.43 1009.03 1009.15 1008.55 1008.11 1007.19 1006.79 1006.19 1005.75 1005.27 1004.91 1004.51 1004.11 1003.67 1003.19 1002.83 1002.35 1001.99 1001.67 1001.39 1001.15 1000.91 1000.79 1000.79 1000.95 1001.35 1001.63
1013.51 1013.51 1013.67 1014.07 1014.35 1014.67 1014.91 1015.07 1015.15 1015.07 1015.03 1014.83 1014.51 1014.27 1014.23 1014.03 1013.79 1013.87 1013.83 1013.63 1013.75 1013.67 1013.51 1013.35 1013.23 1013.23 1013.07 1012.95 1012.67 1012.35 1011.99 1011.71 1011.59 1011.63 1011.71 1011.75 1011.67 1011.35 1011.03 1010.79 1010.75 1010.67 1010.07 1009.39 1009.31 1009.79 1009.47 1009.51 1009.19 1008.91 1008.79 1008.67 1007.71 1006.35 1005.83 1005.15 1004.91 1004.55 1004.23 1003.79 1003.19 1002.35 1001.87 1001.43 1000.95 1000.47 1000.23 1000.03 999.83 999.87 999.99 1000.19 1000.63 1000.87
1013.23 1013.31 1013.35 1013.39 1014.03 1014.51 1014.95 1015.15 1015.07 1014.99 1015.07 1015.27 1014.91 1014.47 1014.27 1014.47 1014.79 1014.63 1014.03 1013.79 1013.75 1013.67 1013.47 1013.27 1013.11 1012.87 1012.63 1012.51 1012.23 1011.83 1011.47 1010.99 1010.59 1010.55 1010.67 1010.75 1010.75 1010.91 1010.99 1010.95 1010.79 1010.47 1009.91 1009.55 1009.59 1009.91 1009.87 1009.55 1009.15 1008.75 1008.39 1008.19 1007.35 1006.63 1005.35 1004.91 1004.27 1004.07 1003.63 1003.31 1002.79 1001.71 1001.19 1000.47 999.99 999.63 999.47 999.39 999.39 999.35 999.35 999.51 999.87 1000.07
1013.15 1013.03 1013.39 1013.35 1013.95 1014.43 1014.75 1014.87 1014.95 1015.11 1015.23 1015.35 1015.03 1014.67 1015.03 1015.19 1014.99 1014.63 1014.31 1013.99 1013.67 1013.39 1013.19 1012.83 1012.67 1012.63 1012.59 1012.35 1012.03 1011.71 1011.19 1011.03 1011.07 1011.03 1010.95 1010.87 1010.87 1010.91 1010.87 1010.91 1010.87 1010.67 1010.15 1009.59 1009.67 1009.79 1009.75 1009.43 1009.03 1008.83 1008.31 1007.99 1006.79 1006.31 1005.55 1004.55 1003.79 1003.51 1002.91 1002.63 1002.27 1001.43 1000.67 1000.07 999.67 999.31 999.07 998.79 998.51 998.51 998.47 998.59 998.91 999.27
1012.83 1012.63 1012.55 1013.11 1013.79 1014.23 1014.55 1014.83 1015.11 1015.23 1015.23 1015.19 1014.91 1015.03 1015.07 1015.11 1014.99 1014.75 1014.11 1013.83 1013.63 1013.35 1013.07 1013.11 1013.15 1013.03 1012.79 1012.55 1011.95 1011.39 1011.47 1011.43 1011.27 1011.27 1011.27 1011.23 1011.15 1010.99 1010.75 1010.51 1010.31 1010.11 1009.75 1009.47 1009.31 1009.27 1009.39 1009.15 1008.51 1008.63 1008.31 1007.75 1007.03 1005.95 1005.51 1004.87 1003.23 1002.63 1002.47 1001.91 1001.43 1000.63 999.95 999.59 999.19 998.75 998.43 998.23 998.03 997.67 997.63 997.71 998.07 998.43
1012.47 1012.43 1012.51 1013.15 1013.75 1014.15 1014.47 1014.91 1015.19 1015.23 1015.23 1015.03 1015.11 1015.19 1015.15 1014.99 1014.87 1014.51 1013.99 1013.71 1013.43 1012.87 1012.55 1012.75 1012.79 1012.59 1012.11 1011.83 1011.75 1011.75 1011.59 1011.55 1011.55 1011.59 1011.51 1011.27 1010.95 1010.67 1010.39 1010.15 1009.91 1009.59 1009.35 1009.15 1008.87 1008.71 1008.75 1008.67 1008.27 1007.99 1007.75 1007.47 1007.03 1006.19 1005.11 1004.03 1003.71 1003.03 1002.35 1001.07 1000.63 1000.11 999.43 999.03 998.63 998.19 997.75 997.43 997.15 996.91 996.95 997.23 997.59 998.19
1012.03 1012.27 1012.59 1013.19 1013.71 1014.15 1014.63 1015.03 1015.31 1015.43 1015.35 1015.19 1015.19 1015.11 1014.95 1014.91 1014.35 1014.07 1013.95 1013.15 1012.83 1013.11 1012.99 1012.63 1012.31 1012.11 1012.03 1011.91 1011.79 1011.63 1011.59 1011.63 1011.59 1011.47 1011.15 1010.83 1010.59 1010.35 1010.07 1009.75 1009.51 1009.23 1008.91 1008.55 1008.35 1008.27 1008.31 1008.39 1008.15 1007.47 1006.95 1006.59 1006.27 1005.55 1005.15 1004.23 1003.39 1002.51 1002.19 1001.71 1000.55 999.87 999.47 998.79 998.35 997.95 997.47 997.03 996.75 996.47 996.43 996.43 996.67 997.03
1012.51 1012.75 1013.11 1013.55 1014.15 1014.59 1014.87 1015.11 1015.11 1014.59 1014.31 1014.59 1014.71 1014.59 1014.63 1014.35 1013.95 1013.59 1012.95 1012.83 1013.19 1013.07 1012.87 1012.63 1012.55 1012.27 1011.95 1011.83 1011.67 1011.71 1011.75 1011.67 1011.47 1011.23 1010.99 1010.75 1010.47 1010.15 1009.91 1009.71 1009.35 1008.91 1008.47 1008.15 1007.99 1007.87 1007.71 1007.51 1007.35 1007.07 1006.75 1006.27 1005.95 1005.51 1004.91 1004.15 1002.99 1002.35 1001.83 1001.51 1000.87 999.79 999.07 998.55 997.99 997.55 997.23 996.91 996.47 996.11 995.75 995.59 995.63 996.15
1012.83 1013.31 1013.47 1013.83 1014.11 1014.11 1014.39 1014.15 1013.79 1013.71 1013.87 1014.03 1014.07 1013.91 1013.75 1013.55 1013.27 1012.71 1012.71 1012.99 1013.07 1013.07 1012.91 1012.75 1012.47 1012.19 1012.03 1011.91 1011.91 1011.79 1011.59 1011.39 1011.07 1010.79 1010.71 1010.63 1010.35 1010.15 1009.87 1009.67 1009.31 1008.83 1008.27 1007.87 1007.63 1007.51 1007.47 1007.23 1006.99 1006.75 1006.59 1006.03 1005.59 1005.27 1004.51 1003.99 1003.19 1002.19 1001.47 1001.11 1000.83 1000.67 999.31 998.55 997.87 997.31 996.87 996.47 996.03 995.59 995.11 995.07 995.23 995.55
1012.39 1013.03 1013.51 1013.91 1013.95 1013.75 1013.87 1013.83 1013.59 1013.31 1013.15 1013.03 1012.95 1012.71 1012.55 1012.55 1012.27 1012.31 1012.79 1013.07 1013.07 1012.99 1012.75 1012.47 1012.39 1012.27 1012.23 1012.11 1011.75 1011.51 1011.31 1011.07 1010.87 1010.67 1010.59 1010.55 1010.35 1010.07 1009.67 1009.51 1009.19 1008.75 1008.39 1007.99 1007.59 1007.27 1007.15 1006.95 1006.71 1006.35 1006.15 1005.91 1005.63 1004.83 1004.19 1003.67 1002.99 1002.15 1001.47 1000.91 1000.47 999.87 999.27 998.67 997.91 997.19 996.51 995.91 995.59 995.27 994.71 994.59 994.75 995.03
1012.07 1012.39 1012.63 1012.67 1012.75 1012.83 1012.83 1012.75 1012.67 1012.55 1012.71 1012.59 1012.19 1012.27 1012.19 1012.03 1011.95 1011.95 1012.07 1012.07 1012.23 1012.31 1012.31 1012.39 1012.39 1012.31 1012.07 1011.83 1011.63 1011.39 1011.19 1010.99 1010.79 1010.55 1010.47 1010.31 1010.23 1009.83 1009.55 1009.39 1009.03 1008.75 1008.55 1008.11 1007.63 1007.27 1006.99 1006.63 1006.31 1006.07 1005.75 1005.35 1005.07 1004.67 1004.19 1003.47 1002.51 1002.03 1001.67 1000.91 1000.31 999.71 999.03 998.43 997.87 997.15 996.43 995.99 995.55 995.19 994.91 994.51 994.39 994.55
1011.23 1011.39 1011.55 1011.63 1011.83 1011.95 1011.87 1011.79 1011.79 1011.67 1011.51 1011.51 1011.63 1011.71 1011.79 1011.91 1011.91 1011.79 1011.59 1012.03 1012.15 1012.07 1012.31 1012.35 1012.23 1012.03 1011.91 1011.75 1011.51 1011.31 1011.15 1010.87 1010.63 1010.43 1010.35 1010.11 1009.79 1009.63 1009.31 1009.03 1008.75 1008.47 1008.39 1008.07 1007.67 1007.27 1006.95 1006.63 1006.19 1005.75 1005.43 1005.03 1004.47 1004.15 1003.79 1003.43 1002.79 1002.11 1001.59 1000.99 1000.39 999.67 998.91 998.43 997.83 997.19 996.63 996.27 995.83 995.39 994.95 994.67 994.31 994.11
1011.27 1011.23 1011.27 1011.23 1011.19 1011.23 1011.31 1011.27 1011.07 1011.03 1011.27 1011.43 1011.59 1011.59 1011.59 1011.55 1011.51 1011.59 1011.83 1011.75 1011.95 1012.27 1012.31 1012.19 1012.03 1011.83 1011.71 1011.59 1011.35 1011.23 1011.03 1010.87 1010.63 1010.31 1009.99 1009.71 1009.47 1009.23 1008.95 1008.87 1008.67 1008.47 1008.19 1007.95 1007.63 1007.19 1006.95 1006.59 1006.15 1005.75 1005.35 1004.99 1004.43 1003.43 1002.99 1002.91 1002.79 1002.23 1001.59 1000.95 1000.39 999.79 998.99 998.31 997.83 997.15 996.51 995.79 995.35 995.11 994.75 994.63 994.47 994.07
1011.23 1011.07 1011.19 1011.19 1011.23 1011.11 1011.03 1010.87 1010.95 1011.07 1011.19 1011.39 1011.43 1011.27 1010.91 1011.15 1011.51 1011.83 1011.91 1012.23 1012.39 1012.35 1012.27 1011.99 1011.79 1011.71 1011.59 1011.35 1011.15 1011.03 1010.91 1010.75 1010.51 1010.15 1009.91 1009.67 1009.31 1008.99 1008.75 1008.55 1008.35 1007.99 1007.71 1007.47 1007.23 1006.99 1006.87 1006.67 1006.15 1006.03 1005.99 1005.51 1005.03 1004.15 1003.07 1002.51 1002.47 1002.39 1001.95 1001.19 1000.47 999.87 999.11 998.39 997.75 997.11 996.43 995.55 994.79 994.67 994.67 994.51 994.19 993.87
1011.43 1011.15 1011.11 1011.15 1010.91 1010.75 1010.83 1010.95 1011.11 1011.19 1011.27 1011.27 1011.39 1011.19 1011.07 1011.71 1011.87 1011.75 1011.87 1012.27 1012.39 1012.27 1012.03 1011.95 1011.71 1011.43 1011.23 1011.11 1011.03 1010.95 1010.71 1010.55 1010.35 1010.11 1009.87 1009.43 1009.15 1008.91 1008.67 1008.35 1008.11 1007.79 1007.47 1007.03 1006.71 1006.59 1006.47 1006.27 1006.07 1006.23 1006.23 1005.87 1005.39 1004.71 1003.63 1002.43 1002.07 1001.99 1002.03 1001.55 1000.79 1000.07 999.39 998.55 997.87 997.11 996.63 996.35 995.31 994.79 994.55 994.31 993.91 993.39
1011.39 1011.27 1011.63 1011.95 1010.83 1010.55 1010.71 1010.75 1010.83 1011.03 1011.11 1011.19 1010.95 1010.55 1011.23 1011.83 1011.87 1011.83 1011.87 1012.07 1012.03 1011.75 1011.55 1011.43 1011.31 1011.23 1011.07 1011.07 1011.11 1010.87 1010.67 1010.39 1010.19 1009.95 1009.63 1009.31 1009.11 1008.91 1008.71 1008.47 1008.07 1007.71 1007.39 1006.83 1006.51 1006.47 1006.27 1006.27 1006.27 1006.19 1006.15 1005.91 1005.47 1004.75 1003.87 1002.79 1002.27 1001.79 1001.67 1001.67 1001.23 1000.35 999.55 998.91 998.31 997.87 997.03 996.31 996.19 995.83 995.23 994.55 993.91 993.35
1011.51 1011.35 1011.11 1011.03 1010.67 1010.75 1010.99 1011.19 1011.35 1011.43 1011.35 1011.19 1010.83 1010.87 1011.51 1011.67 1011.87 1011.87 1011.83 1011.79 1011.67 1011.67 1011.63 1011.55 1011.31 1011.19 1011.27 1011.15 1010.91 1010.71 1010.51 1010.35 1010.15 1009.91 1009.55 1009.23 1009.07 1008.95 1008.71 1008.35 1008.07 1007.67 1007.19 1006.67 1006.39 1006.23 1006.11 1006.23 1006.31 1006.35 1006.19 1005.91 1005.55 1005.07 1004.47 1003.75 1002.87 1002.15 1001.63 1001.51 1001.39 1000.71 999.91 999.55 998.95 998.23 997.71 996.91 996.03 995.39 994.99 994.35 993.47 993.03
1011.27 1010.95 1010.67 1010.67 1010.79 1010.91 1011.11 1011.31 1011.51 1011.51 1011.35 1011.19 1011.31 1011.35 1011.23 1011.51 1012.03 1011.99 1011.87 1011.67 1011.59 1011.75 1011.79 1011.59 1011.43 1011.31 1011.11 1010.87 1010.75 1010.51 1010.35 1010.19 1010.03 1009.71 1009.43 1009.23 1009.07 1008.87 1008.55 1008.35 1008.11 1007.51 1006.95 1006.63 1006.47 1006.23 1006.19 1006.23 1006.19 1006.15 1005.95 1005.63 1005.23 1004.59 1004.11 1003.63 1002.95 1002.23 1001.79 1001.31 1000.99 1000.79 1000.31 999.79 999.31 998.75 998.03 997.63 996.95 996.19 995.15 994.07 993.43 992.87
1010.63 1010.75 1010.75 1010.91 1011.11 1011.19 1011.31 1011.35 1011.27 1011.19 1011.03 1010.87 1010.87 1011.31 1011.55 1011.71 1012.39 1012.23 1011.95 1011.95 1012.07 1012.11 1011.87 1011.55 1011.31 1011.15 1010.91 1010.75 1010.63 1010.47 1010.39 1010.15 1009.87 1009.59 1009.39 1009.23 1008.95 1008.71 1008.51 1008.27 1007.79 1007.23 1006.99 1006.63 1006.51 1006.47 1006.31 1006.07 1005.83 1005.83 1005.59 1005.15 1004.63 1004.11 1003.67 1003.27 1002.87 1002.31 1001.79 1001.23 1000.75 1000.43 1000.11 999.83 999.59 999.27 998.83 998.27 997.75 997.11 996.43 995.63 994.63 993.55
1010.55 1010.67 1010.71 1010.87 1011.11 1011.19 1011.23 1011.23 1011.11 1011.03 1010.79 1010.71 1010.67 1010.43 1010.47 1011.55 1012.03 1012.11 1012.15 1012.11 1012.15 1012.07 1011.83 1011.43 1011.03 1010.95 1010.79 1010.67 1010.47 1010.39 1010.31 1010.11 1009.79 1009.59 1009.43 1009.19 1008.83 1008.51 1008.27 1007.95 1007.63 1007.23 1007.03 1006.75 1006.51 1006.31 1005.95 1005.75 1005.63 1005.55 1005.23 1004.95 1004.67 1004.59 1004.27 1003.79 1003.23 1002.71 1002.15 1001.51 1000.87 1000.43 1000.07 999.79 999.51 999.31 999.11 998.83 998.47 997.75 997.07 996.11 995.47 994.47
1010.47 1010.63 1010.79 1010.83 1010.83 1010.99 1011.07 1011.07 1010.95 1010.83 1010.75 1011.07 1011.35 1011.27 1011.47 1011.91 1011.75 1011.71 1011.71 1011.51 1011.43 1011.35 1011.15 1010.99 1010.95 1010.87 1010.75 1010.59 1010.47 1010.35 1010.23 1009.91 1009.75 1009.67 1009.39 1009.07 1008.75 1008.51 1008.19 1007.83 1007.55 1007.23 1006.87 1006.47 1006.11 1005.83 1005.55 1005.59 1005.63 1005.47 1005.23 1004.99 1004.87 1004.75 1004.47 1003.95 1003.51 1003.07 1002.47 1001.87 1001.23 1000.71 1000.19 999.83 999.55 999.35 999.07 998.87 998.83 998.75 998.51 998.07 997.35 995.95
1010.35 1010.55 1010.63 1010.67 1010.67 1010.63 1010.75 1010.71 1010.87 1011.15 1011.31 1011.11 1011.03 1011.31 1011.63 1011.79 1011.63 1011.39 1011.27 1011.23 1011.19 1011.11 1011.03 1011.07 1011.03 1010.83 1010.71 1010.59 1010.47 1010.31 1010.07 1009.91 1009.83 1009.63 1009.23 1008.91 1008.63 1008.35 1008.07 1007.71 1007.43 1007.15 1006.75 1006.31 1006.11 1005.71 1005.47 1005.47 1005.43 1005.51 1005.51 1005.07 1004.79 1004.59 1004.39 1004.07 1003.63 1003.23 1002.91 1002.31 1001.59 1000.99 1000.51 1000.07 999.63 999.31 998.99 998.79 998.63 998.39 998.15 997.87 997.55 996.91
1010.15 1010.19 1010.27 1010.27 1010.27 1010.35 1010.55 1010.63 1010.63 1010.67 1010.47 1010.59 1011.07 1011.51 1011.51 1011.51 1011.47 1011.27 1011.07 1011.03 1011.07 1011.07 1011.11 1011.03 1010.91 1010.79 1010.71 1010.63 1010.59 1010.43 1010.11 1009.95 1009.67 1009.27 1009.03 1008.71 1008.47 1008.19 1007.91 1007.63 1007.39 1007.15 1006.83 1006.47 1006.27 1005.91 1005.67 1005.31 1005.03 1005.11 1005.23 1004.95 1004.63 1004.51 1004.31 1004.15 1003.95 1003.47 1003.07 1002.63 1002.11 1001.51 1000.99 1000.55 1000.19 999.79 999.39 999.07 998.71 998.47 998.11 997.59 996.99 996.39
Thickness
5726 5726 5725 5722 5720 5720 5720 5719 5719 5718 5715 5712 5709 5706 5703 5696 5691 5690 5691 5693 5697 5704 5706 5705 5707 5708 5705 5701 5700 5698 5697 5696 5694 5693 5692 5692 5692 5692 5691 5690 5688 5688 5688 5687 5687 5687 5686 5686 5687 5688 5689 5689 5690 5691 5692 5695 5696 5697 5699 5700 5702 5704 5706 5707 5710 5713 5715 5719 5721 5724 5727 5729 5732 5734
5722 5721 5721 5720 5718 5718 5718 5717 5717 5716 5713 5710 5708 5705 5704 5701 5694 5690 5688 5690 5694 5698 5702 5703 5703 5703 5702 5700 5698 5698 5696 5695 5694 5693 5692 5692 5691 5690 5690 5689 5687 5685 5684 5684 5685 5684 5684 5684 5684 5685 5685 5686 5687 5687 5688 5689 5692 5694 5695 5696 5698 5700 5702 5704 5706 5709 5712 5715 5718 5721 5724 5726 5729 5732
5719 5716 5715 5715 5714 5715 5716 5715 5715 5713 5711 5709 5707 5705 5704 5702 5699 5695 5690 5688 5693 5696 5696 5699 5702 5701 5700 5701 5699 5696 5695 5694 5693 5692 5691 5690 5689 5688 5687 5686 5685 5683 5682 5681 5681 5682 5682 5682 5681 5682 5682 5683 5683 5684 5685 5685 5687 5689 5691 5692 5694 5696 5699 5701 5703 5706 5708 5712 5715 5717 5720 5723 5727 5729
5718 5714 5711 5710 5710 5711 5711 5711 5710 5708 5708 5707 5705 5703 5702 5702 5700 5699 5692 5687 5690 5695 5694 5695 5698 5699 5699 5700 5698 5695 5693 5693 5691 5690 5689 5688 5686 5685 5684 5684 5683 5682 5681 5679 5679 5679 5679 5679 5679 5679 5678 5680 5680 5681 5682 5682 5683 5685 5686 5688 5689 5691 5694 5697 5699 5702 5705 5708 5711 5714 5717 5720 5723 5726
5713 5711 5709 5708 5708 5708 5707 5707 5706 5704 5703 5703 5703 5702 5700 5700 5698 5696 5691 5686 5685 5691 5693 5692 5693 5696 5696 5695 5695 5694 5692 5691 5689 5688 5687 5685 5684 5683 5682 5682 5682 5682 5680 5678 5678 5676 5675 5675 5675 5675 5676 5676 5677 5678 5679 5679 5679 5681 5682 5684 5685 5687 5690 5693 5696 5698 5701 5703 5706 5710 5714 5717 5720 5723
5709 5708 5706 5705 5706 5706 5704 5703 5701 5700 5699 5701 5701 5701 5698 5697 5696 5693 5689 5685 5682 5684 5688 5689 5689 5692 5692 5691 5693 5693 5690 5689 5688 5687 5685 5682 5681 5680 5680 5679 5680 5680 5679 5678 5676 5674 5672 5671 5671 5671 5672 5673 5674 5675 5676 5676 5676 5677 5678 5680 5682 5684 5686 5688 5692 5694 5697 5701 5703 5706 5710 5713 5717 5719
5706 5704 5702 5702 5703 5703 5701 5700 5699 5697 5697 5698 5697 5696 5695 5693 5692 5691 5687 5683 5679 5678 5682 5685 5686 5687 5687 5686 5688 5689 5688 5687 5685 5684 5682 5681 5678 5677 5676 5676 5676 5676 5674 5674 5673 5672 5670 5668 5667 5668 5668 5669 5670 5671 5672 5673 5674 5674 5675 5677 5679 5681 5683 5685 5687 5691 5693 5697 5699 5702 5705 5709 5713 5716
5703 5701 5700 5700 5700 5700 5697 5697 5697 5696 5694 5694 5692 5690 5690 5689 5686 5686 5683 5677 5674 5674 5676 5680 5683 5683 5683 5682 5684 5684 5683 5683 5681 5679 5678 5677 5675 5674 5673 5673 5672 5671 5670 5669 5669 5669 5668 5666 5664 5664 5664 5665 5665 5666 5667 5669 5670 5671 5672 5673 5675 5677 5679 5681 5683 5686 5690 5693 5695 5698 5701 5705 5709 5712
5700 5698 5697 5697 5697 5696 5694 5693 5694 5694 5692 5691 5689 5686 5684 5684 5682 5681 5678 5673 5671 5670 5670 5673 5676 5679 5679 5678 5679 5679 5676 5675 5674 5673 5673 5673 5672 5670 5670 5669 5669 5668 5667 5667 5665 5665 5664 5663 5662 5661 5660 5661 5661 5662 5664 5665 5666 5668 5669 5670 5671 5673 5675 5677 5679 5683 5686 5689 5691 5694 5697 5700 5705 5709
5697 5695 5694 5693 5693 5692 5691 5690 5690 5690 5689 5688 5685 5682 5679 5678 5677 5676 5674 5672 5670 5669 5668 5669 5670 5672 5672 5672 5673 5674 5671 5668 5667 5665 5665 5667 5667 5666 5665 5664 5664 5664 5664 5664 5663 5661 5661 5661 5660 5660 5658 5657 5658 5659 5660 5662 5664 5665 5666 5667 5667 5669 5671 5674 5676 5680 5682 5685 5688 5691 5694 5696 5700 5704
5693 5692 5690 5689 5690 5689 5688 5688 5687 5686 5685 5682 5679 5677 5676 5674 5673 5672 5670 5669 5669 5668 5668 5667 5667 5667 5668 5668 5668 5669 5667 5663 5661 5660 5659 5659 5661 5661 5660 5659 5659 5660 5660 5660 5659 5658 5658 5658 5658 5658 5657 5656 5655 5657 5658 5660 5661 5662 5663 5664 5665 5666 5669 5671 5673 5676 5678 5682 5685 5688 5691 5694 5697 5702
5689 5689 5689 5688 5687 5686 5686 5684 5683 5681 5681 5678 5674 5673 5672 5670 5669 5669 5667 5666 5665 5665 5664 5663 5664 5664 5664 5664 5663 5663 5659 5654 5652 5654 5653 5653 5654 5655 5655 5654 5653 5654 5654 5654 5655 5655 5655 5655 5654 5654 5654 5654 5654 5655 5656 5658 5659 5661 5661 5662 5663 5664 5666 5667 5669 5671 5674 5679 5683 5686 5690 5692 5695 5699
5686 5686 5685 5685 5684 5683 5681 5680 5678 5678 5676 5674 5670 5668 5667 5665 5665 5665 5663 5662 5661 5660 5660 5660 5660 5659 5659 5658 5657 5654 5652 5649 5648 5650 5649 5648 5649 5649 5650 5650 5649 5649 5648 5648 5649 5650 5649 5649 5649 5650 5651 5652 5652 5653 5656 5657 5658 5660 5660 5660 5661 5660 5661 5662 5664 5667 5670 5675 5680 5684 5688 5691 5694 5697
5682 5682 5682 5681 5680 5678 5677 5675 5675 5675 5674 5671 5668 5666 5664 5662 5661 5660 5658 5658 5657 5656 5656 5656 5656 5654 5653 5653 5651 5649 5648 5647 5646 5645 5643 5642 5643 5643 5642 5643 5645 5645 5643 5641 5642 5643 5643 5642 5642 5645 5647 5649 5650 5652 5655 5656 5656 5657 5657 5657 5656 5655 5656 5659 5661 5663 5667 5671 5677 5681 5686 5689 5692 5695
5679 5678 5678 5677 5676 5674 5673 5672 5672 5672 5670 5668 5666 5663 5661 5658 5657 5656 5654 5654 5655 5654 5654 5653 5651 5649 5647 5648 5647 5645 5644 5643 5641 5639 5638 5637 5636 5635 5634 5636 5638 5640 5638 5634 5635 5638 5639 5636 5636 5640 5643 5646 5649 5650 5653 5654 5653 5654 5654 5653 5653 5653 5654 5655 5657 5660 5663 5668 5673 5679 5683 5687 5691 5694
5678 5675 5674 5673 5673 5672 5670 5669 5668 5668 5666 5665 5662 5659 5658 5657 5655 5653 5653 5652 5652 5651 5649 5648 5645 5644 5643 5643 5642 5641 5639 5637 5635 5633 5633 5631 5631 5630 5629 5629 5632 5635 5632 5628 5628 5633 5636 5633 5632 5636 5641 5644 5647 5649 5652 5653 5652 5653 5653 5651 5651 5652 5651 5652 5654 5657 5660 5665 5670 5675 5680 5685 5689 5692
5676 5673 5672 5671 5670 5668 5666 5666 5665 5665 5663 5662 5659 5657 5657 5656 5654 5652 5651 5650 5649 5646 5644 5642 5641 5641 5639 5637 5636 5635 5631 5628 5627 5626 5627 5626 5625 5624 5624 5625 5628 5630 5627 5622 5623 5628 5631 5630 5630 5634 5639 5643 5646 5649 5651 5652 5651 5651 5651 5649 5649 5649 5649 5651 5652 5655 5659 5663 5668 5673 5677 5683 5687 5690
5675 5672 5671 5669 5667 5665 5663 5663 5662 5661 5660 5659 5657 5654 5654 5654 5653 5650 5649 5647 5645 5641 5639 5637 5636 5637 5635 5631 5631 5629 5626 5623 5621 5620 5619 5620 5619 5619 5620 5622 5624 5625 5623 5619 5618 5623 5627 5627 5628 5632 5637 5641 5645 5648 5648 5649 5649 5649 5648 5647 5646 5646 5646 5647 5650 5654 5658 5662 5666 5672 5676 5681 5686 5689
5675 5672 5669 5667 5664 5662 5660 5660 5658 5657 5655 5653 5651 5650 5649 5649 5649 5648 5646 5645 5644 5641 5638 5636 5633 5633 5631 5630 5628 5625 5623 5620 5617 5616 5616 5616 5615 5615 5617 5619 5620 5621 5622 5618 5615 5619 5625 5626 5626 5630 5635 5638 5642 5644 5644 5645 5646 5645 5644 5642 5639 5639 5640 5644 5648 5652 5657 5661 5665 5670 5675 5680 5684 5687
5675 5672 5667 5663 5660 5657 5656 5655 5653 5651 5650 5648 5647 5645 5643 5642 5643 5644 5644 5644 5642 5640 5638 5636 5633 5631 5629 5627 5624 5621 5618 5615 5613 5613 5612 5611 5611 5611 5612 5614 5616 5618 5620 5618 5614 5616 5623 5625 5624 5627 5631 5633 5635 5639 5641 5642 5642 5641 5637 5633 5631 5632 5634 5639 5645 5650 5655 5660 5665 5670 5674 5679 5683 5686
5674 5671 5668 5665 5661 5657 5654 5651 5647 5645 5645 5644 5642 5640 5638 5637 5639 5640 5640 5640 5639 5638 5636 5633 5630 5628 5625 5622 5619 5616 5612 5610 5608 5606 5604 5604 5606 5607 5607 5608 5610 5613 5616 5616 5613 5614 5619 5621 5620 5622 5626 5626 5628 5634 5638 5638 5636 5634 5630 5625 5624 5627 5630 5635 5641 5647 5653 5660 5665 5670 5674 5678 5682 5683
5672 5670 5668 5665 5661 5656 5652 5646 5642 5641 5640 5639 5637 5635 5634 5634 5634 5635 5636 5637 5635 5633 5632 5629 5626 5622 5620 5617 5615 5613 5609 5606 5604 5600 5600 5602 5603 5602 5602 5605 5607 5611 5613 5613 5612 5612 5614 5615 5614 5615 5619 5621 5624 5629 5632 5632 5630 5626 5622 5621 5621 5624 5628 5633 5639 5644 5651 5658 5664 5669 5674 5677 5680 5680
5670 5668 5665 5661 5656 5651 5646 5641 5638 5636 5636 5635 5634 5632 5631 5630 5630 5631 5632 5631 5628 5625 5623 5623 5621 5619 5616 5614 5611 5610 5608 5606 5604 5602 5602 5602 5600 5599 5601 5604 5605 5606 5609 5611 5610 5607 5609 5609 5607 5606 5607 5611 5618 5625 5626 5625 5623 5620 5617 5616 5619 5623 5628 5632 5638 5644 5650 5657 5663 5669 5673 5676 5677 5678
5667 5665 5661 5656 5650 5644 5640 5635 5633 5632 5630 5629 5629 5628 5628 5626 5626 5624 5624 5622 5620 5618 5617 5616 5614 5613 5612 5610 5609 5609 5608 5608 5607 5607 5605 5603 5601 5601 5602 5602 5601 5602 5605 5607 5604 5602 5602 5602 5601 5600 5600 5600 5607 5617 5622 5622 5618 5614 5613 5613 5616 5624 5630 5634 5641 5647 5651 5657 5663 5668 5672 5675 5675 5676
5663 5660 5657 5653 5646 5639 5634 5629 5628 5626 5623 5621 5622 5622 5621 5618 5616 5615 5615 5615 5614 5612 5612 5611 5610 5609 5608 5607 5607 5608 5608 5609 5609 5607 5605 5603 5602 5600 5598 5597 5596 5598 5600 5601 5598 5595 5595 5595 5596 5597 5597 5596 5598 5604 5612 5617 5616 5612 5611 5612 5615 5623 5630 5636 5642 5648 5651 5656 5662 5667 5671 5674 5675 5677
5658 5656 5654 5649 5642 5635 5629 5625 5623 5620 5617 5616 5616 5615 5613 5610 5607 5607 5609 5609 5608 5607 5608 5607 5606 5604 5602 5602 5603 5605 5605 5605 5603 5601 5599 5598 5596 5594 5593 5591 5590 5592 5594 5595 5593 5590 5589 5590 5592 5592 5591 5594 5597 5598 5601 5608 5613 5613 5611 5613 5615 5622 5630 5635 5640 5646 5651 5655 5662 5667 5672 5674 5675 5677
5655 5654 5652 5645 5637 5630 5625 5620 5617 5615 5613 5612 5611 5608 5605 5603 5601 5602 5603 5603 5603 5603 5604 5601 5599 5597 5597 5598 5599 5600 5599 5597 5595 5594 5592 5590 5589 5589 5589 5589 5588 5589 5591 5592 5591 5589 5587 5587 5589 5588 5586 5586 5591 5594 5595 5601 5608 5610 5612 5615 5618 5623 5630 5635 5640 5646 5651 5656 5662 5667 5672 5675 5676 5677
5651 5650 5647 5640 5632 5626 5621 5616 5612 5610 5608 5606 5604 5601 5599 5597 5597 5597 5598 5599 5600 5600 5600 5598 5595 5595 5596 5595 5595 5594 5593 5591 5589 5588 5586 5586 5587 5587 5587 5588 5587 5587 5589 5589 5590 5589 5587 5584 5585 5587 5586 5584 5584 5588 5592 5597 5602 5605 5608 5615 5621 5624 5630 5636 5640 5645 5650 5656 5662 5668 5672 5675 5676 5676
5647 5644 5639 5633 5626 5620 5615 5610 5607 5605 5603 5601 5598 5595 5593 5592 5593 5593 5595 5597 5596 5594 5594 5593 5593 5593 5593 5592 5591 5589 5587 5585 5584 5584 5584 5585 5585 5585 5586 5587 5586 5587 5588 5589 5590 5589 5586 5584 5584 5586 5587 5586 5584 5585 5587 5592 5598 5602 5604 5609 5617 5622 5627 5633 5638 5643 5649 5654 5661 5667 5672 5676 5678 5678
5639 5634 5629 5624 5618 5613 5610 5607 5605 5605 5603 5598 5594 5592 5590 5590 5591 5593 5594 5593 5591 5588 5587 5588 5588 5588 5588 5587 5586 5585 5583 5581 5581 5582 5582 5582 5583 5583 5583 5583 5584 5586 5587 5588 5588 5588 5586 5585 5585 5584 5584 5585 5584 5583 5583 5587 5595 5601 5603 5605 5611 5619 5625 5631 5637 5641 5647 5652 5659 5667 5673 5678 5681 5682
5631 5626 5620 5616 5612 5609 5606 5605 5605 5604 5602 5597 5594 5592 5591 5590 5592 5593 5591 5588 5585 5583 5583 5583 5583 5583 5582 5582 5581 5580 5579 5579 5580 5581 5580 5579 5579 5580 5580 5581 5581 5584 5586 5586 5586 5585 5584 5583 5584 5582 5580 5580 5581 5582 5583 5584 5590 5598 5603 5605 5608 5613 5621 5628 5635 5641 5646 5651 5658 5666 5673 5679 5682 5683
5627 5621 5616 5612 5609 5607 5605 5603 5603 5602 5600 5598 5597 5595 5594 5593 5593 5592 5588 5584 5582 5581 5580 5580 5579 5578 5577 5577 5577 5577 5577 5578 5577 5578 5577 5576 5576 5576 5577 5578 5578 5580 5582 5583 5583 5583 5582 5582 5582 5580 5578 5576 5576 5578 5582 5585 5589 5594 5600 5605 5608 5612 5618 5625 5631 5639 5646 5652 5659 5665 5672 5679 5682 5683
5627 5621 5617 5613 5610 5608 5606 5604 5603 5601 5599 5599 5598 5597 5595 5593 5591 5589 5587 5584 5581 5580 5578 5577 5575 5574 5574 5574 5574 5574 5574 5575 5575 5575 5574 5573 5574 5575 5575 5575 5576 5577 5577 5578 5580 5580 5580 5580 5580 5580 5579 5576 5574 5575 5578 5583 5589 5593 5596 5602 5607 5612 5618 5624 5630 5637 5644 5650 5656 5662 5668 5674 5681 5684
5627 5623 5620 5615 5612 5610 5608 5606 5605 5603 5601 5599 5597 5594 5592 5590 5589 5587 5584 5582 5580 5577 5574 5573 5571 5572 5571 5571 5571 5572 5572 5572 5572 5572 5572 5572 5572 5573 5574 5574 5575 5575 5574 5574 5576 5577 5578 5579 5580 5580 5580 5579 5578 5578 5578 5580 5585 5590 5594 5599 5605 5611 5617 5623 5629 5635 5642 5648 5653 5659 5665 5671 5679 5685
5623 5621 5617 5614 5611 5609 5608 5607 5605 5603 5600 5597 5593 5591 5590 5588 5586 5584 5580 5577 5575 5572 5570 5569 5569 5569 5569 5569 5569 5569 5569 5568 5569 5570 5571 5571 5572 5572 5572 5572 5572 5573 5572 5572 5573 5574 5574 5576 5578 5579 5578 5579 5580 5581 5582 5582 5583 5587 5592 5597 5602 5609 5615 5622 5627 5633 5641 5648 5654 5658 5663 5668 5675 5682
5617 5616 5613 5610 5608 5607 5605 5604 5602 5599 5596 5593 5589 5590 5589 5585 5581 5578 5575 5571 5569 5567 5567 5567 5567 5567 5567 5567 5567 5567 5566 5566 5567 5567 5568 5569 5570 5570 5571 5570 5571 5572 5572 5572 5573 5573 5573 5573 5574 5574 5572 5572 5573 5576 5580 5583 5583 5584 5588 5593 5599 5606 5612 5619 5627 5632 5638 5646 5652 5657 5661 5666 5673 5680
5610 5610 5607 5603 5604 5605 5604 5601 5598 5594 5592 5589 5587 5587 5585 5579 5575 5573 5571 5567 5564 5564 5565 5565 5565 5565 5566 5565 5565 5564 5564 5564 5565 5565 5566 5567 5568 5568 5568 5568 5569 5569 5570 5572 5572 5572 5571 5572 5571 5568 5565 5565 5566 5569 5575 5581 5583 5583 5585 5588 5595 5603 5609 5615 5623 5629 5634 5640 5647 5652 5657 5663 5671 5680
5605 5604 5602 5599 5600 5602 5600 5596 5593 5591 5588 5586 5585 5583 5578 5572 5569 5569 5567 5564 5564 5564 5564 5563 5564 5564 5563 5562 5562 5562 5562 5563 5563 5563 5564 5565 5565 5565 5565 5566 5567 5567 5569 5570 5571 5570 5569 5569 5567 5564 5561 5560 5561 5563 5568 5575 5579 5582 5584 5585 5589 5597 5605 5610 5616 5622 5628 5635 5640 5644 5650 5658 5667 5677
5600 5600 5600 5599 5598 5598 5594 5589 5586 5583 5581 5581 5581 5579 5575 5570 5566 5565 5563 5563 5563 5562 5561 5560 5561 5560 5559 5559 5559 5560 5560 5560 5560 5561 5562 5563 5562 5562 5563 5563 5564 5565 5567 5569 5569 5569 5568 5565 5564 5562 5560 5558 5558 5559 5562 5566 5572 5577 5581 5582 5585 5591 5598 5604 5609 5615 5621 5628 5635 5642 5650 5658 5667 5674
5598 5597 5597 5596 5593 5590 5587 5583 5580 5578 5577 5577 5576 5573 5570 5566 5561 5560 5560 5560 5558 5557 5556 5556 5557 5557 5557 5557 5558 5558 5558 5558 5558 5559 5560 5560 5560 5560 5560 5561 5561 5564 5566 5567 5567 5566 5565 5564 5562 5561 5559 5559 5559 5560 5562 5564 5569 5574 5579 5581 5585 5589 5593 5598 5604 5608 5614 5619 5626 5635 5644 5653 5664 5672
5597 5595 5593 5590 5586 5584 5581 5579 5576 5575 5575 5574 5572 5569 5566 5561 5556 5554 5555 5555 5552 5551 5552 5553 5554 5554 5555 5555 5555 5556 5555 5555 5556 5557 5557 5557 5558 5558 5558 5559 5561 5563 5564 5565 5563 5563 5562 5562 5562 5560 5560 5561 5562 5562 5563 5564 5567 5572 5576 5580 5584 5588 5591 5595 5599 5602 5607 5612 5617 5624 5632 5642 5652 5663
5595 5592 5589 5586 5583 5580 5577 5575 5573 5573 5573 5570 5568 5567 5565 5559 5554 5552 5552 5550 5549 5549 5549 5551 5553 5552 5552 5553 5553 5553 5553 5553 5554 5554 5554 5555 5556 5556 5557 5558 5559 5560 5561 5562 5562 5562 5562 5562 5561 5560 5560 5561 5560 5559 5559 5561 5563 5567 5571 5576 5581 5585 5588 5592 5596 5598 5601 5605 5608 5613 5620 5628 5638 5651
5591 5588 5585 5582 5580 5577 5574 5572 5571 5570 5568 5566 5564 5562 5559 5554 5552 5552 5552 5551 5550 5550 5549 5550 5550 5549 5550 5550 5550 5550 5551 5551 5551 5551 5551 5552 5554 5554 5555 5556 5557 5558 5560 5560 5561 5563 5563 5561 5559 5558 5559 5560 5558 5556 5556 5557 5560 5562 5566 5571 5576 5581 5584 5589 5593 5596 5599 5601 5603 5605 5609 5614 5623 5635
5588 5585 5582 5580 5578 5575 5573 5570 5568 5565 5564 5564 5561 5558 5554 5550 5550 5552 5551 5550 5549 5549 5548 5547 5547 5547 5547 5547 5547 5547 5548 5548 5548 5548 5550 5551 5552 5552 5553 5554 5555 5556 5558 5559 5560 5561 5562 5561 5559 5557 5557 5558 5558 5556 5556 5556 5557 5558 5562 5566 5571 5576 5580 5585 5589 5593 5596 5599 5601 5604 5607 5611 5617 5626
5586 5584 5581 5579 5577 5575 5572 5569 5567 5565 5564 5561 5557 5553 5551 5550 5549 5549 5549 5549 5548 5546 5545 5544 5544 5544 5544 5544 5543 5544 5545 5545 5546 5547 5548 5549 5550 5550 5551 5552 5553 5554 5555 5556 5557 5557 5559 5560 5560 5558 5556 5558 5558 5557 5556 5555 5555 5555 5557 5561 5565 5569 5574 5578 5583 5587 5591 5595 5598 5602 5607 5612 5619 5626